Home > Weather > Pirassununga > Past weeks

Flag for Brazil Weather for the Past 2 Weeks in Pirassununga, São Paulo, Brazil

Now
86 °F

Clear.


Feels Like: 89 °F
Forecast: N/A
Wind: 5 mph from West

Location: Pirassununga Airport

Current Time: Feb 9, 2016 at 9:13:54 PM

Latest Report: Feb 9, 2016 at 8:00 PM


Visibility: 10 mi

Pressure: 30.01 "Hg (27.95 "Hg at 632m altitude)

Humidity: 55%

Dew point: 68 °F

Location of PirassunungaLocation

Historic Weather in Pirassununga — Graph

°F

Pirassununga Temperature Yesterday

Maximum temperature yesterday: 90 °F (at 3:00 PM)
Minimum temperature yesterday: 68 °F (at 7:00 AM)
Average temperature yesterday: 76 °F

High & Low Weather Summary for the Past Weeks

 TemperatureHumidityPressure
High97 °F (Feb 2, 4:00 PM)100% (Jan 26, 6:00 AM)30.15 "Hg (Jan 26, 6:00 AM)
Low64 °F (Feb 1, 6:00 AM)25% (Feb 2, 4:00 PM)29.83 "Hg (Jan 26, 5:00 PM)
Average81 °F68%30.02 "Hg
* Reported Jan 25 8:00 PM — Feb 9 8:00 PM, Pirassununga, Weather by CustomWeather, © 2016

Note: Actual official high and low records may vary slightly from our data, if they occured in-between our weather recording intervals... More about our weather records

Advertising

Pirassununga Weather History for the Previous 24 Hours

 ConditionsComfort  
Time TempWeatherWind HumidityBarometerVisibility
8:00 PM
Tue, Feb 9
86 °FClear.5 mph55%30.01 "Hg10 mi
7:00 PM91 °FSunny.5 mph38%29.98 "Hg10 mi
6:00 PM91 °FSunny.10 mph36%30.01 "Hg10 mi
5:00 PM93 °FPassing clouds.9 mph36%30.01 "HgN/A
4:00 PM91 °FScattered clouds.8 mph44%30.04 "HgN/A
3:00 PM91 °FScattered clouds.8 mph44%30.07 "HgN/A
2:00 PM90 °FPartly sunny.7 mph49%30.09 "HgN/A
1:00 PM86 °FScattered clouds.7 mph59%30.09 "HgN/A
12:00 PM84 °FScattered clouds.7 mph66%30.12 "HgN/A
11:00 AM82 °FPassing clouds.5 mph70%30.15 "HgN/A
10:00 AM77 °FScattered clouds.2 mph89%30.15 "HgN/A
9:00 AM72 °FFog.2 mph100%30.15 "Hg2 mi
8:00 AM70 °FFog.2 mph100%30.12 "Hg1 mi
7:00 AM68 °FFog.2 mph100%30.09 "Hg0 mi
6:00 AM70 °FFog.No wind100%30.09 "Hg0 mi
11:00 PM
Mon, Feb 8
72 °FClear.2 mph100%30.09 "Hg10 mi
10:00 PM72 °FClear.2 mph100%30.07 "Hg10 mi
9:00 PM73 °FPassing clouds.6 mph94%30.04 "HgN/A
Weather by CustomWeather, © 2016

See weather overviewHow to use our weather pages